This demonstration page uses our WeatherBlox Daily Observations layout. Learn more.

Left ArrowRight Arrow

Hourly Observations for January 25, 2017

Temp ( °F °C ) Dew Point ( °F °C ) Humidity (%) Winds ( mph kmh ) Pressure ( in mb ) Visibility ( mi km ) Precip ( " mm )
12:04 am 00:04 Cloudy 30 -1.1 27 -2.8 88 88 NNW 18 30 29.77 1008 10 16 0.00 0.00
12:53 am 00:53 Cloudy 30 -1.1 26 -3.3 85 85 NW 21 33 29.73 1007 10 16 0.00 0.03
1:14 am 01:14 Cloudy with Light Snow 28 -2 27 -3 93 93 NW 18 30 29.80 1009 9 14 0.00 0.00
1:53 am 01:53 Windy with Snow Likely 29 -1.7 25 -3.9 85 85 NW 23 37 29.75 1007 8 13 0.00 0.03
2:00 am 02:00 Windy with Snow Likely 27 -2.8 23 -5 85 85 NW 25 41 29.80 1009 4 6 0.00 0.03
2:39 am 02:39 Windy with Snow Likely 25 -3.9 21 -6.1 85 85 NW 26 43 29.80 1009 5 8 0.00 0.03
2:53 am 02:53 Windy with Snow Likely 24 -4.4 20 -6.7 84 84 NW 24 39 29.79 1009 5 8 0.00 0.03
3:53 am 03:53 Windy with Snow Likely 24 -4.4 20 -6.7 84 84 NW 22 35 29.80 1009 8 13 0.00 0.03
4:18 am 04:18 Partly Cloudy 24 -4.4 20 -6.7 84 84 NW 23 37 29.85 1011 10 16 0.00 0.03
4:53 am 04:53 Mostly Clear 23 -5 19 -7.2 85 85 NNW 23 37 29.83 1010 10 16 0.00 0.03
5:53 am 05:53 Mostly Clear 22 -5.6 18 -7.8 85 85 NW 22 35 29.85 1011 10 16 0.00 0.00
6:24 am 06:24 Mostly Cloudy 23 -5 18 -7.8 81 81 NW 21 33 29.91 1013 10 16 0.00 0.00
6:53 am 06:53 Cloudy 23 -5 18 -7.8 81 81 NW 23 37 29.87 1012 10 16 0.00 0.00
7:15 am 07:15 Cloudy 23 -5 19 -7.2 85 85 NW 21 33 29.94 1014 9 14 0.00 0.00
7:22 am 07:22 Cloudy 23 -5 19 -7 86 86 NW 18 30 29.94 1014 10 16 0.00 0.00
7:47 am 07:47 Windy with Snow Likely 23 -5 19 -7 86 86 NW 20 31 29.94 1014 3 4 0.00 0.03
7:53 am 07:53 Windy with Snow Likely 23 -5 19 -7.2 85 85 NW 22 35 29.90 1012 2 3 0.00 0.03
7:59 am 07:59 Windy with Snow Likely 23 -5 19 -7.2 85 85 NW 22 35 29.94 1014 2 3 0.00 0.03
8:05 am 08:05 Windy with Snow Likely 24 -4.4 19 -7.2 81 81 NW 23 37 29.94 1014 2 3 0.00 0.03
8:18 am 08:18 Windy with Snow Likely 25 -4 19 -7 80 80 NW 20 31 29.94 1014 3 5 0.00 0.00
8:26 am 08:26 Windy with Snow Likely 25 -4 19 -7 80 80 NW 20 31 29.94 1014 3 4 0.00 0.00
8:53 am 08:53 Windy with Snow Likely 24 -4.4 19 -7.2 81 81 NW 22 35 29.92 1013 3 4 0.00 0.03
9:08 am 09:08 Windy with Snow Likely 25 -4 19 -7 80 80 NW 24 39 29.97 1015 3 4 0.00 0.00
9:23 am 09:23 Windy with Snow Likely 25 -4 19 -7 80 80 NNW 24 39 29.97 1015 7 11 0.00 0.00
9:53 am 09:53 Windy with Snow Likely 24 -4.4 19 -7.2 81 81 NNW 22 35 29.94 1014 4 6 0.00 0.03
10:38 am 10:38 Partly Cloudy 27 -3 19 -7 74 74 NNW 24 39 30.03 1017 10 16 0.00 0.00
10:53 am 10:53 Mostly Sunny 26 -3.3 19 -7.2 75 75 NNW 24 39 29.96 1015 10 16 0.00 0.03
11:53 am 11:53 Mostly Sunny 27 -2.8 19 -7.2 72 72 NNW 25 41 29.98 1015 10 16 0.00 0.00
12:49 pm 12:49 Mostly Cloudy 27 -3 19 -7 74 74 NNW 29 46 30.03 1017 10 16 0.00 0.00
12:53 pm 12:53 Mostly Cloudy 27 -2.8 19 -7.2 72 72 NNW 23 37 29.97 1015 10 16 0.00 0.00
1:53 pm 13:53 Cloudy 27 -2.8 20 -6.7 75 75 NNW 21 33 29.98 1015 10 16 0.00 0.00
2:53 pm 14:53 Windy with Snow Likely 26 -3.3 19 -7.2 75 75 NNW 25 41 30.00 1016 4 6 0.00 0.03
3:04 pm 15:04 Windy with Snow Likely 27 -3 19 -7 74 74 NW 22 35 30.06 1018 3 4 0.00 0.00
3:11 pm 15:11 Windy with Snow Likely 26 -3.3 20 -6.7 78 78 NNW 21 33 30.06 1018 5 8 0.00 0.03
3:53 pm 15:53 Cloudy 26 -3.3 19 -7.2 75 75 NNW 22 35 30.02 1017 9 14 0.00 0.03
4:12 pm 16:12 Cloudy 26 -3.3 19 -7.2 75 75 NW 22 35 30.09 1019 10 16 0.00 0.00
4:27 pm 16:27 Windy with Snow Likely 26 -3.3 19 -7.2 75 75 NW 23 37 30.09 1019 5 8 0.00 0.03
4:53 pm 16:53 Windy with Snow Likely 25 -3.9 19 -7.2 78 78 NW 21 33 30.06 1018 4 6 0.00 0.03
5:03 pm 17:03 Cloudy with Light Snow 25 -4 19 -7 80 80 NW 17 28 30.12 1020 5 8 0.00 0.00
5:18 pm 17:18 Windy with Snow Likely 25 -4 19 -7 80 80 NW 22 35 30.12 1020 3 4 0.00 0.00
5:32 pm 17:32 Cloudy with Light Snow 25 -4 19 -7 80 80 NW 17 28 30.12 1020 3 5 0.00 0.00
5:53 pm 17:53 Cloudy 24 -4.4 19 -7.2 81 81 NW 17 28 30.09 1019 9 14 0.00 0.03
6:44 pm 18:44 Mostly Cloudy 23 -5 18 -8 80 80 NW 15 24 30.18 1022 10 16 0.00 0.00
6:53 pm 18:53 Cloudy 23 -5 18 -7.8 81 81 NW 14 22 30.11 1020 10 16 0.00 0.00
7:53 pm 19:53 Cloudy 23 -5 16 -8.9 74 74 NW 16 26 30.11 1020 10 16 0.00 0.00
8:02 pm 20:02 Cloudy 22 -5.6 16 -8.9 78 78 NW 13 20 30.18 1022 10 16 0.00 0.00
8:53 pm 20:53 Windy with Snow Likely 22 -5.6 16 -8.9 78 78 NW 20 31 30.12 1020 8 13 0.00 0.03
9:53 pm 21:53 Clear 21 -6.1 15 -9.4 78 78 NW 14 22 30.13 1020 10 16 0.00 0.03
10:53 pm 22:53 Mostly Clear 22 -5.6 16 -8.9 78 78 NW 15 24 30.14 1021 10 16 0.00 0.00
11:53 pm 23:53 Cloudy 23 -5 16 -8.9 74 74 NW 20 31 30.15 1021 10 16 0.00 0.00

Powered by AerisWeather